Погода Сосуново

Погода Сосуново : погода сейчас, прогноз погоды и архив. Всё, что Вы хотите узнать о погоде Сосуново!

Хотите узнать прогноз погоды Сосуново? Тогда Вам сюда: Погода Сосуново

Поиск расширенной информации на нашем сайте:

Другие новости

Новости СМИ2

Главная страница сайта

Новости сайта

03.07.2017

Напоминаем, что на нашем специализированном сайте Метеоцентр.Азия вы можете получить высокодетализированные автоматические прогнозы погоды по пунктам России, СНГ и мира в авиационном формате (включающие направление и скорость ветра, видимость, явления погоды, количество и форму облачности, нижнюю и верхнюю границу облачности).


Погода Сосуново - сегодня

Время (UTC), дата Ветер
(°,м/с) 
Видим.   Явления Облачность Т
(°С)
Тd
(°С)
f(%) Тe
(°С)
Pmin
(гПа)
dP
(гПа)
Po
(мм)
O2
(г/м3)
Тmin Tmax R s Состояние
почвы
03 18.07.17 180 (Ю) 20000 м    10/10 600 м 
[Sc]
+16.2 +13.2 82 +21  1009.8  -0.9  757  285           
06 18.07.17 180 (Ю) 10 км  слаб. морось  10/10 300 м 
[St]
+14.9 +13.1 89 +19  1009.2  -0.6  757  287           
09 18.07.17 220 (ЮЗ) 10 км  {морось}  10/10 600 м 
[Sc]
+14.3 +12.4 88 +18  1008.1  -1.1  756  287    +16.4  0.0     
12 18.07.17 210 (ЮЗ) 10 км  {морось}  10/10 300 м 
[St]
+13.9 +12.6 92 +18  1008.5  0.3  756  287           
15 18.07.17 220 (ЮЗ) 10 км  слаб. морось  10/10 300 м 
[St]
+14 +12.9 93 +19  1006.6  -1.9  755  287           
18 18.07.17 210 (ЮЗ) 10 км  слаб. морось  10/10 300 м 
[St]
+14 +13 94 +18  1004.9  -1.7  753  286           
21 18.07.17 220 (ЮЗ) 10 км  {морось}  10/10 300 м 
[St]
+14.2 +13.2 94 +21  1004.2  -0.7  753  286  +13.8    0.8    мокрая 
00 19.07.17 210 (ЮЗ) 6-11{11}  0500 м  слаб. морось{туман}  ?/?  
+14.7 +13.7 94 +20  1003.1  -1  752  285           
03 19.07.17 230 (ЮЗ) 6{12}  10 км  в посл. час туман{морось}  10/10 200 м 
[St]
+15.2 +14.1 93 +22  1001.2  -1.9  751  284           
06 19.07.17 230 (ЮЗ) 4{11}  20000 м  {морось, туман}  10/10 200 м 
[St]
+15.6 +14 90 +23  999.7  -1.4  750  283           
09 19.07.17 180 (Ю) 2{11}  20000 м  туман местами  8/0 верхняя 
[Cs]
+15.8 +14 89 +24  998.9  -0.8  749  282    +16.3  0.3     
12 19.07.17 тихо ()   20000 м    3/3 1000 м 
[Sc]
+14.1 +12.9 92 +19  999.9  750  285           
15 19.07.17 070 (В) 20000 м    10/3 200 м верхняя 
[St|Cs]
+13.6 +12.6 94 +20  1000.2  0.3  750  285           
18 19.07.17 250 (З) 20000 м    10/3 600 м средняя 
[Sc|As op]
+14.9 +13.9 94 +23  1001  0.8  750  284           
21 19.07.17 240 (ЮЗ) 20000 м    9/8 1000 м средняя 
[Sc|Ac trans]
+18.1 +16.7 92 +32  1002.4  1.5  752  280  +12.4        мокрая 
00 20.07.17 290 (З) 20000 м    10/10 1000 м 
[Sc]
+24.6 +18.4 68 +40  1003.3  0.9  752  274           
03 20.07.17 190 (Ю) 20000 м    8/6 600 м верхняя 
[Cu hum|Cs]
+25.5 +17.8 62 +39  1002.6  -0.7  752  273           
06 20.07.17 200 (Ю) 6{11}  20000 м    10/0 верхняя 
[Cs]
+24.1 +15.5 59 +34  1002.3  -0.4  751  275           
09 20.07.17 150 (ЮВ) 20000 м    10/10 600 м 
[Sc]
+20.9 +16 74 +31  1002.4  -0.1  752  278    +26.9       
12 20.07.17 190 (Ю) 20000 м    10/0 верхняя 
[Cs]
+18.7 +16 84 +30  1002.9  0.5  752  280           
15 20.07.17 250 (З) 4000 м  ливневой дождь  10/10 600 м кучево-дожд. 
[Cb cap]
+17.7 +16.2 91 +30  1002.6  -0.3  752  281           
18 20.07.17 040 (СВ) 4000 м  ливневой дождь  10/10 600 м кучево-дожд. 
[Cb calv]
+14 +12.9 93 +20  1002.6  752  286           
21 20.07.17 300 (СЗ) 4000 м  ливневой дождь  10/10 300 м кучево-дожд. 
[Cb cap]
+17.4 +15 86 +27  1002.6  -0.1  752  282  +13.4    12    мокрая 
00 21.07.17 310 (СЗ) 4000 м  ливневой дождь  10/10 600 м кучево-дожд. 
[Cb cap]
+16.8 +15 89 +27  1003.5  0.9  752  282           
03 21.07.17 240 (ЮЗ) 20000 м  в посл. час ливневой дождь  10/10 600 м кучево-дожд. 
[Cb cap]
+18.8 +15.8 83 +30  1004.1  0.6  753  280           
Время (UTC), дата Ветер
(°,м/с) 
Видим.   Явления Облачность Т
(°С)
Тd
(°С)
f(%) Тe
(°С)
Pmin
(гПа)
dP
(гПа)
Po
(мм)
O2
(г/м3)
Тmin Tmax R s Состояние
почвы

Для получения пояснительной информации подведите курсор к названию столбца.

ПОГОДА Сосуново - архив

Всё, что Вы хотите узнать о погоде Сосуново - удобно и подробно!

Выберите нужную дату (начиная с 1 января 2015* года) и нажмите кнопку "Найти".
Будут отображены архивные сводки погоды по пункту Сосуново, начиная с указанной даты.


Отображать данные в формате CSV (для использования в таблицах Excel)


Внимание! Наш архив погоды предназначен исключительно для личного некоммерческого использования в познавательных целях. Если Вам необходимы официальные справки о состоянии погоды (для производственных, юридических, коммерческих и т.п. целей), обращайтесь в органы Росгидромета.

*Примечание: данная дата относится к архиву по метеостанциям СССР (Россия, СНГ, Балтия).
Архив по метеостанциям Зарубежной Европы и Азии (кроме Китая) хранится 10 дней, по другим регионам земного шара (Китай, Африка, Америка, Австралия, Океания) - 1 день.

Сосуново - район местоположения метеостанции


Название, широта, долгота, высота метеостанции:
Сосуново 46.5°ш. 138.3°д. 4 м над ур. моря [Российская Федерация]

Дополнительная информация

В oтличие oт бoльшинства пoгoдных сайтoв мы публикуем пoдрoбную метеoинфoрмацию в детальнoм прoфессиoнальнoм фoрмате.

Характеристики температуры и влажнoсти вoздуха измеряются на высoте 2 м в тени вдали oт зданий и деревьев.
Скoрoсть ветра измеряется на высoте 10 м (на урoвне рoста челoвека скoрoсть ветра ниже в 1.5-2 раза). Если метеoстанция нахoдится в гoрoде или в лесу, тo скoрoсть ветра занижена на 2-4 м/с пo сравнению с oткрытым местoм. Скoрoсть ветра над акватoриями крупных рек и oзёр, а также на вершинах хoлмoв на 2-5 м/с выше, чем в oбычных услoвиях.
Атмoсфернoе давление в разных тoчках местнoсти мoжет значительнo oтличаться oт давления на метеoстанции, в зависимoсти oт услoвий рельефа (при пoдъёме на 10 м давление пoнижается примернo на 1 мм рт.ст.).